User: anonymous   Login
Location: Smithers
(54.7670°N, 127.1670°W)
Time: 18:50:04
(UTC-07:00)
Language:

ERBS - Orbit

View from above orbital plane
View from above orbital plane
View from above satellite
View from above satellite

Ground track
Ground track

The orbit data is extracted from the following two-line orbital elements,

1 15354U 84108B   18172.61172456 +.00002220 +00000-0 +53051-4 0  9994
2 15354 057.0078 344.8635 0016080 090.9653 269.3245 15.46011432855025
Epoch (UTC): 21 June 2018 14:40:53
Eccentricity: 0.0016080
inclination: 57.0078°
perigee height: 417 km
apogee height: 439 km
right ascension of ascending node: 344.8635°
argument of perigee: 90.9653°
revolutions per day: 15.46011432
mean anomaly at epoch: 269.3245°
orbit number at epoch: 85502

The dashed part of the orbit path shows where the satellite is in the earth's shadow,  

DLR